Overview Statistics Trail Chart Weather Telemetry Raw packets
 

This is the latest recevied weather packets stored in our database for station/object K7SKM. If no packets are shown the sender has not sent any weather packets the latest 10 day(s).

<< 3 4 5 6 7 8 9 >>
Time Temp. Humidity Pressure Rain* Wind** Luminosity Snow
1788650979 21.11° C 52% 1020.7 hPa 0 mm - 103 W/m² -
1788650675 21.11° C 53% 1020.9 hPa 0 mm - 108 W/m² -
1788650371 21.67° C 51% 1020.7 hPa 0 mm - 113 W/m² -
1788650067 21.11° C 50% 1020.6 hPa 0 mm - 139 W/m² -
1788649763 21.11° C 48% 1020.9 hPa 0 mm - 111 W/m² -
1788649461 21.67° C 48% 1020.9 hPa 0 mm - 112 W/m² -
1788649159 21.11° C 49% 1021 hPa 0 mm - 112 W/m² -
1788648855 21.11° C 48% 1021 hPa 0 mm - 111 W/m² -
1788648550 20.56° C 49% 1021.2 hPa 0 mm - 110 W/m² -
1788648246 20.56° C 48% 1021.2 hPa 0 mm - 111 W/m² -
1788647940 21.11° C 45% 1021.1 hPa 0 mm - 115 W/m² -
1788647638 21.67° C 45% 1021.2 hPa 0 mm - 116 W/m² -
1788647338 20.56° C 47% 1021.3 hPa 0 mm - 119 W/m² -
1788647037 20° C 51% 1021.4 hPa 0 mm - 120 W/m² -
1788646733 20.56° C 51% 1021.8 hPa 0 mm - 122 W/m² -
1788646430 20.56° C 54% 1021.6 hPa 0 mm - 122 W/m² -
1788646125 20.56° C 53% 1021.7 hPa 0 mm - 124 W/m² -
1788645821 19.44° C 53% 1021.7 hPa 0 mm - 129 W/m² -
1788645520 20° C 54% 1021.9 hPa 0 mm - 125 W/m² -
1788645216 18.89° C 55% 1021.9 hPa 0 mm - 133 W/m² -
1788644944 18.89° C 57% 1021.9 hPa 0 mm - 129 W/m² -
1788644613 19.44° C 57% 1022 hPa 0 mm - 138 W/m² -
1788644308 18.89° C 63% 1022 hPa 0 mm - 182 W/m² -
1788644004 18.33° C 68% 1022.1 hPa 0 mm - 160 W/m² -
1788643699 17.78° C 70% 1022.2 hPa 0 mm - 168 W/m² -

* Rain latest hour (hover to see other rain measurements)
** Current wind speed in m/s (hover to see current wind gust speed)